FW0772 Weather Reports


time (UTC)temp
C
wind
direction
speed
KPH
gust
KPH
rain 1hr
cm
rain 24hr
cm
rain mn
cm
humidity
%
barometer
mb
20240722150024 20 295 9.7 29.0 0.00 0.28 0.28 89 1014.0
20240722144527 20 290 8.0 19.3 0.00 0.28 0.28 92 1013.8
20240722143026 20 275 8.0 16.1 0.00 0.28 0.28 93 1013.7
20240722141541 20 293 6.4 12.9 0.00 0.28 0.28 94 1013.5
20240722140031 19 298 11.3 24.1 0.00 0.28 0.28 92 1013.5
20240722134524 21 304 17.7 32.2 0.00 0.25 0.25 83 1013.3
20240722133024 22 350 9.7 24.1 0.00 0.25 0.25 85 1012.7
20240722131523 22 316 16.1 37.0 0.00 0.25 0.25 82 1012.5
20240722130036 22 293 16.1 25.7 0.00 0.25 0.25 86 1012.5
20240722124523 21 309 11.3 20.9 0.00 0.25 0.25 93 1012.3
20240722123035 21 272 4.8 12.9 0.00 0.25 0.25 95 1012.2
20240722121525 20 311 6.4 14.5 0.05 0.25 0.25 94 1012.0
20240722120027 20 317 8.0 19.3 0.05 0.25 0.25 93 1011.9
20240722114522 20 245 9.7 17.7 0.05 0.25 0.25 94 1011.8
20240722113024 20 313 8.0 25.7 0.05 0.25 0.25 93 1011.8
20240722111529 21 284 8.0 27.4 0.00 0.18 0.18 89 1011.5
20240722110027 23 229 16.1 25.7 0.00 0.18 0.18 81 1011.2
20240722104536 24 271 9.7 16.1 0.00 0.18 0.18 78 1010.8
20240722103040 23 282 11.3 19.3 0.00 0.18 0.18 79 1011.0
20240722101523 23 292 9.7 16.1 0.00 0.18 0.18 79 1010.8
20240722100025 23 265 8.0 19.3 0.00 0.18 0.18 83 1010.8
20240722094540 23 254 14.5 25.7 0.00 0.18 0.18 81 1010.8
20240722093019 23 269 12.9 19.3 0.00 0.18 0.18 82 1010.7
20240722091535 23 267 8.0 24.1 0.00 0.18 0.18 86 1010.6
20240722090023 23 260 9.7 17.7 0.00 0.18 0.18 87 1010.4
20240722084525 23 265 8.0 17.7 0.00 0.18 0.18 87 1010.2
20240722083022 22 285 4.8 12.9 0.00 0.18 0.18 90 1010.0
20240722081531 22 252 3.2 11.3 0.00 0.18 0.18 92 1010.0
20240722080021 21 274 3.2 11.3 0.00 0.18 0.18 94 1009.9
20240722074522 21 260 1.6 11.3 0.00 0.18 0.18 96 1009.9
20240722073022 21 0 1.6 6.4 0.00 0.18 0.18 96 1009.5
20240722071542 20 263 0.0 4.8 0.00 0.18 0.18 97 1009.5
20240722070025 20 0 0.0 4.8 0.00 0.18 0.18 98 1009.4
20240722064522 20 268 0.0 4.8 0.00 0.18 0.18 98 1009.4
20240722063024 20 0 0.0 4.8 0.00 0.18 0.18 98 1009.3
20240722061522 20 157 0.0 4.8 0.00 0.18 0.18 98 1009.3
20240722060028 20 0 0.0 3.2 0.00 0.18 0.18 98 1009.3
20240722054521 20 258 0.0 3.2 0.00 0.18 0.18 98 1009.3
20240722053039 20 0 0.0 1.6 0.00 0.18 0.18 98 1009.0
20240722051523 19 0 0.0 0.0 0.00 0.18 0.18 98 1009.0
20240722050034 19 0 0.0 0.0 0.00 0.18 0.18 98 1008.8
20240722044523 19 0 0.0 0.0 0.00 0.18 0.18 98 1008.8
20240722043021 19 0 0.0 1.6 0.00 0.18 0.18 97 1008.7
20240722041521 19 258 1.6 4.8 0.03 0.18 0.18 97 1008.6
20240722040024 19 66 1.6 9.7 0.03 0.18 0.18 97 1008.3
20240722034522 19 73 1.6 8.0 0.03 0.18 0.18 97 1008.5
20240722033022 19 0 1.6 4.8 0.00 0.18 0.18 96 1008.6
20240722031531 19 174 0.0 6.4 0.08 0.15 0.15 96 1008.7
20240722030020 19 121 1.6 4.8 0.08 0.15 0.15 96 1008.6
20240722024523 19 53 1.6 6.4 0.08 0.15 0.15 95 1008.6
20240722023020 19 69 1.6 4.8 0.08 0.15 0.15 95 1008.9
20240722021521 19 0 0.0 1.6 0.00 0.08 0.08 94 1009.1
20240722020026 19 0 0.0 0.0 0.03 0.08 0.08 93 1009.0
20240722014526 20 286 0.0 1.6 0.08 0.08 0.08 92 1009.0
20240722013040 20 0 0.0 1.6 0.05 0.05 0.05 89 1008.9
20240722011522 20 0 0.0 9.7 0.05 0.05 0.05 87 1009.1
20240722010031 21 263 1.6 11.3 0.00 0.00 0.00 82 1008.7
20240722004523 21 153 0.0 6.4 0.00 0.00 0.00 78 1008.3
20240722003031 21 0 0.0 3.2 0.00 0.00 0.00 79 1008.1
20240722001523 21 0 0.0 3.2 0.00 0.00 0.00 80 1008.3
20240722000024 20 142 0.0 6.4 0.00 0.00 0.00 81 1008.3
20240721234523 20 0 0.0 0.0 0.00 0.00 0.00 82 1008.5
20240721233029 20 0 0.0 0.0 0.00 0.00 0.00 81 1008.6
20240721231524 20 0 0.0 0.0 0.00 0.00 0.00 81 1008.7
20240721230020 20 0 0.0 0.0 0.00 0.00 0.00 78 1008.7
20240721224520 20 0 0.0 0.0 0.00 0.00 0.00 76 1008.6
20240721223020 20 0 0.0 0.0 0.00 0.00 0.00 74 1008.8
20240721221523 21 0 0.0 0.0 0.00 0.00 0.00 71 1008.7
20240721220022 22 0 0.0 0.0 0.00 0.00 0.00 69 1008.5
20240721214522 22 0 0.0 0.0 0.00 0.00 0.00 67 1008.5
20240721213022 22 0 0.0 4.8 0.00 0.00 0.00 65 1008.5
20240721211523 22 105 1.6 6.4 0.00 0.00 0.00 64 1008.5
20240721210022 22 117 1.6 6.4 0.00 0.00 0.00 64 1008.5
20240721204522 22 109 3.2 9.7 0.00 0.00 0.00 63 1008.5
20240721203034 23 80 3.2 8.0 0.00 0.00 0.00 63 1008.6
20240721201520 23 63 1.6 9.7 0.00 0.00 0.00 63 1008.6
20240721200028 23 91 1.6 4.8 0.00 0.00 0.00 63 1008.7
20240721194522 23 67 1.6 4.8 0.00 0.00 0.00 62 1008.8
20240721193021 23 0 0.0 4.8 0.00 0.00 0.00 62 1009.0
20240721191520 24 0 1.6 6.4 0.00 0.00 0.00 60 1008.9
20240721190020 25 74 3.2 11.3 0.00 0.00 0.00 58 1008.7
20240721184522 25 93 1.6 14.5 0.00 0.00 0.00 57 1008.7
20240721183019 26 74 3.2 14.5 0.00 0.00 0.00 56 1008.6
20240721181522 26 43 1.6 12.9 0.00 0.00 0.00 55 1008.6
20240721180022 27 64 4.8 19.3 0.00 0.00 0.00 53 1008.6
20240721174520 28 71 6.4 17.7 0.00 0.00 0.00 51 1008.4
20240721173021 28 34 3.2 11.3 0.00 0.00 0.00 52 1008.3
20240721171520 28 55 4.8 14.5 0.00 0.00 0.00 52 1008.4
20240721170022 28 51 4.8 14.5 0.00 0.00 0.00 53 1008.3
20240721164522 28 70 4.8 19.3 0.00 0.00 0.00 50 1008.2
20240721163027 29 59 3.2 17.7 0.00 0.00 0.00 49 1008.1
20240721161519 30 72 4.8 19.3 0.00 0.00 0.00 48 1008.2
20240721160020 30 115 3.2 19.3 0.00 0.00 0.00 47 1008.2
20240721154525 31 51 4.8 17.7 0.00 0.00 0.00 46 1008.4
20240721153021 31 59 4.8 20.9 0.00 0.00 0.00 44 1008.3
20240721151523 31 68 3.2 14.5 0.00 0.00 0.00 44 1008.3